[[{"header":{"parameterUnit":"m.s-1","parameterCategory":1,"la1":30.2991,"la2":30.254,"lo1":-89.0895,"lo2":-89.0444,"dy":0.0017,"dx":0.0017,"nx":28,"ny":28,"refTime":"2024-04-01T03:00:00:Z","depth":0,"parameterNumber":2,"parameterNumberName":"U-component_of_WINDS"},"data":[0,0,0,0,0,0,0,0,0,0,0,0,0,0,0,0,0,0,0,0,0,0,0,0,0,0,0,0,0,0,0,0,0,0,0,0,0,0,0,0,0,0,0,0,0,0,0,0,0,0,0,0,0,0,0,0,0,0,-0.8793,-0.8794,0,-0.8859,-0.886,-0.886,-0.8897,-0.8897,-0.8897,-0.8897,-0.8965,-0.8967,-0.8969,0,0,0,0,0,0,0,0,0,0,0,0,0,-0.8698,-0.87,-0.8793,-0.8794,-0.8795,-0.8859,-0.886,-0.8861,-0.8897,-0.8897,-0.8897,-0.8898,-0.8965,-0.8967,-0.8969,0,0,0,0,0,0,0,0,0,0,0,0,0,-0.8749,-0.8701,-0.8793,-0.8821,-0.8824,-0.8859,-0.886,-0.8861,-0.8897,-0.8897,-0.8897,-0.8898,-0.8964,-0.8967,-0.8969,-0.8982,0,0,-0.8977,-0.8978,0,0,0,0,0,0,0,0,-0.8747,-0.8753,-0.8816,-0.8819,-0.8822,-0.887,-0.8851,-0.8901,-0.8897,-0.8869,-0.8897,-0.8898,-0.8934,-0.8939,-0.8951,-0.8985,-0.8988,-0.8977,-0.8979,-0.898,-0.8981,0,0,0,0,0,0,0,-0.8743,-0.875,-0.8819,-0.8816,-0.8821,-0.883,-0.8837,-0.8861,-0.89,-0.8872,-0.8874,-0.8882,-0.8935,-0.8948,-0.8953,-0.8989,-0.8977,-0.8979,-0.8981,-0.8982,-0.9036,-0.9036,0,0,0,0,0,0,-0.8735,-0.8747,-0.8817,-0.8821,-0.8784,-0.8831,-0.884,-0.8854,-0.89,-0.8907,-0.8882,-0.8883,-0.8944,-0.8949,-0.8955,-0.8973,-0.898,-0.8982,-0.8984,-0.9037,-0.9036,-0.9036,0,0,0,0,0,0,-0.8733,-0.8741,-0.8814,-0.8785,-0.8795,-0.8833,-0.8849,-0.8856,-0.8868,-0.8907,-0.8914,-0.8887,-0.8944,-0.8951,-0.8975,-0.8975,-0.8983,-0.8986,-0.9037,-0.9037,-0.9036,-0.9007,0,0,0,0,0,0,-0.873,-0.874,-0.8745,-0.8785,-0.8796,-0.8833,-0.8849,-0.8857,-0.8873,-0.8876,-0.8914,-0.8921,-0.8945,-0.8971,-0.8977,-0.8979,-0.8988,-0.9037,-0.9037,-0.9036,-0.9009,-0.9006,-0.9004,0,0,0,0,0,-0.8726,-0.8734,-0.8745,-0.8753,-0.8804,-0.8833,-0.8839,-0.8866,-0.8873,-0.8878,-0.8903,-0.892,-0.8974,-0.8973,-0.898,-0.8983,-0.9037,-0.9037,-0.9036,-0.9009,-0.9007,-0.9005,0,0,0,0,0,0,-0.8694,-0.874,-0.8752,-0.8774,-0.8799,-0.8839,-0.8847,-0.8863,-0.8887,-0.8889,-0.8921,-0.893,-0.895,-0.8969,-0.8966,-0.8997,-0.9007,-0.9009,-0.8984,-0.8982,-0.898,-0.8975,-0.899,0,0,0,0,0,-0.8689,-0.8709,-0.8748,-0.8763,-0.8775,-0.8808,-0.8822,-0.8841,-0.8868,-0.8879,-0.8906,-0.8932,-0.8955,-0.897,-0.8993,-0.9012,-0.902,-0.9017,-0.9015,-0.9013,-0.9014,-0.9025,-0.9024,-0.9036,-0.9036,-0.9036,0,0,-0.868,-0.8707,-0.8718,-0.8757,-0.8779,-0.8799,-0.8817,-0.8837,-0.8852,-0.8883,-0.8906,-0.8926,-0.8958,-0.8979,-0.8989,-0.8995,-0.9013,-0.9013,-0.9011,-0.9013,-0.9025,-0.9023,-0.9022,-0.9036,-0.9036,-0.9036,0,0,-0.8672,-0.8695,-0.871,-0.8731,-0.8764,-0.8786,-0.879,-0.8827,-0.8842,-0.8866,-0.8889,-0.8907,-0.8946,-0.8967,-0.8983,-0.8984,-0.9,-0.899,-0.898,-0.899,-0.8989,-0.8989,-0.8988,-0.8988,-0.8991,-0.8991,-0.8991,0,-0.8656,-0.8687,-0.8715,-0.8734,-0.8751,-0.8779,-0.8794,-0.8813,-0.8852,-0.8862,-0.8869,-0.8918,-0.8941,-0.8967,-0.8967,-0.8979,-0.8984,-0.8986,-0.8987,-0.8987,-0.8986,-0.8987,-0.8987,-0.899,-0.899,-0.899,-0.899,0,-0.8666,-0.8686,-0.8694,-0.873,-0.8748,-0.8764,-0.8796,-0.881,-0.8827,-0.8848,-0.8872,-0.8901,-0.8931,-0.8938,-0.8955,-0.8967,-0.8969,-0.8981,-0.8991,-0.8983,-0.8984,-0.8985,-0.8988,-0.8988,-0.8989,-0.8989,0,0,-0.864,-0.8691,-0.8694,-0.871,-0.8748,-0.8765,-0.8783,-0.8811,-0.8823,-0.8849,-0.8864,-0.8897,-0.8907,-0.8926,-0.8945,-0.8954,-0.8952,-0.8965,-0.8966,-0.8961,-0.8967,-0.8957,-0.8957,-0.8963,-0.8964,-0.8964,-0.8964,0,-0.8638,-0.8671,-0.8697,-0.872,-0.874,-0.8766,-0.8782,-0.8807,-0.8827,-0.8847,-0.887,-0.8892,-0.8905,-0.8916,-0.8926,-0.895,-0.8954,-0.8951,-0.8978,-0.8979,-0.8969,-0.8957,-0.8948,-0.8947,-0.8964,-0.8964,-0.8964,0,-0.864,-0.8664,-0.8689,-0.8725,-0.8734,-0.8747,-0.8775,-0.8794,-0.8822,-0.8837,-0.8857,-0.8877,-0.8897,-0.8906,-0.8934,-0.8931,-0.8944,-0.8958,-0.8959,-0.8962,-0.8971,-0.896,-0.8947,-0.8946,-0.8965,-0.8965,-0.8965,0,-0.8618,-0.8657,-0.8677,-0.869,-0.8732,-0.8741,-0.8759,-0.8788,-0.8803,-0.8828,-0.8839,-0.8865,-0.888,-0.8901,-0.8928,-0.8931,-0.8953,-0.8964,-0.8965,-0.8965,-0.8968,-0.8968,-0.8956,-0.8977,-0.8977,-0.8977,-0.8977,0,-0.8613,-0.8627,-0.8667,-0.868,-0.8696,-0.8726,-0.8742,-0.8762,-0.8788,-0.8804,-0.883,-0.8845,-0.888,-0.8899,-0.8921,-0.894,-0.8947,-0.8959,-0.8965,-0.8957,-0.8955,-0.8965,-0.8966,-0.8977,-0.8977,-0.8977,-0.8977,0,-0.8591,-0.8619,-0.8642,-0.868,-0.869,-0.87,-0.8733,-0.8746,-0.8767,-0.8788,-0.8795,-0.8829,-0.8853,-0.8882,-0.8916,-0.8931,-0.8948,-0.8957,-0.8938,-0.8942,-0.8941,-0.8941,-0.8936,-0.8937,-0.8957,-0.8957,-0.8956,0,-0.8586,-0.8597,-0.8636,-0.8649,-0.8666,-0.8686,-0.8702,-0.8732,-0.8747,-0.878,-0.8789,-0.8815,-0.8838,-0.8875,-0.8903,-0.8929,-0.8938,-0.8935,-0.8942,-0.8934,-0.8938,-0.8937,-0.8938,-0.8933,-0.8932,-0.8932,-0.8932,0,-0.8573,-0.8586,-0.8608,-0.8634,-0.8652,-0.8674,-0.8697,-0.8706,-0.8741,-0.8757,-0.8782,-0.8799,-0.8833,-0.8859,-0.8888,-0.8907,-0.8925,-0.8929,-0.8931,-0.8923,-0.8911,-0.8917,-0.8933,-0.8929,-0.8929,-0.893,-0.893,-0.893,-0.8559,-0.857,-0.8599,-0.8622,-0.8643,-0.8664,-0.8678,-0.8701,-0.8722,-0.8752,-0.8768,-0.8793,-0.8821,-0.8863,-0.8881,-0.8901,-0.8907,-0.8909,-0.891,-0.891,-0.8907,-0.8908,-0.8906,-0.8906,-0.8906,-0.8906,-0.8907,0,-0.8548,-0.8567,-0.8588,-0.862,-0.8638,-0.8653,-0.8679,-0.8693,-0.8714,-0.8739,-0.876,-0.8789,-0.8814,-0.8844,-0.8871,-0.8881,-0.889,-0.8887,-0.8886,-0.889,-0.89,-0.8896,-0.8879,-0.8879,-0.8879,-0.8879,-0.8879,-0.8879,-0.8544,-0.8563,-0.8579,-0.8609,-0.8629,-0.8653,-0.8667,-0.8686,-0.8706,-0.8737,-0.8757,-0.8776,-0.8803,-0.8833,-0.8856,-0.8864,-0.8873,-0.8867,-0.8878,-0.8887,-0.8889,-0.8892,-0.8888,-0.8869,-0.8869,-0.8866,-0.8866,-0.8866]},{"header":{"parameterUnit":"m.s-1","parameterCategory":1,"la1":30.2991,"la2":30.254,"lo1":-89.0895,"lo2":-89.0444,"dy":0.0017,"dx":0.0017,"nx":28,"ny":28,"refTime":"2024-04-01T03:00:00:Z","depth":0,"parameterNumber":3,"parameterNumberName":"V-component_of_WINDS"},"data":[0,0,0,0,0,0,0,0,0,0,0,0,0,0,0,0,0,0,0,0,0,0,0,0,0,0,0,0,0,0,0,0,0,0,0,0,0,0,0,0,0,0,0,0,0,0,0,0,0,0,0,0,0,0,0,0,0,0,3.6496,3.6496,0,3.6522,3.6523,3.6523,3.6507,3.6506,3.6505,3.6505,3.6529,3.653,3.6532,0,0,0,0,0,0,0,0,0,0,0,0,0,3.6427,3.6429,3.6496,3.6496,3.6496,3.6522,3.6523,3.6523,3.6507,3.6506,3.6505,3.6504,3.6529,3.653,3.6532,0,0,0,0,0,0,0,0,0,0,0,0,0,3.6456,3.6429,3.6496,3.6492,3.6491,3.6522,3.6523,3.6523,3.6507,3.6506,3.6505,3.6504,3.6528,3.653,3.6532,3.6568,0,0,3.6538,3.6539,0,0,0,0,0,0,0,0,3.6454,3.6458,3.6492,3.6492,3.6492,3.651,3.6508,3.6538,3.6507,3.6501,3.6505,3.6503,3.6524,3.6526,3.6533,3.6569,3.657,3.6539,3.654,3.6541,3.6541,0,0,0,0,0,0,0,3.6452,3.6457,3.6506,3.6492,3.6492,3.6487,3.649,3.6513,3.6518,3.6502,3.65,3.6504,3.6523,3.6531,3.6534,3.657,3.6539,3.654,3.6542,3.6542,3.6635,3.6636,0,0,0,0,0,0,3.6451,3.6455,3.6505,3.6507,3.647,3.6489,3.6492,3.6505,3.6518,3.6519,3.6505,3.6503,3.6528,3.6531,3.6535,3.6577,3.6541,3.6543,3.6544,3.6634,3.6635,3.6637,0,0,0,0,0,0,3.6449,3.6456,3.6504,3.6481,3.6487,3.6492,3.6506,3.6507,3.6515,3.6521,3.6521,3.6513,3.6528,3.6532,3.656,3.6577,3.6544,3.6545,3.6632,3.6634,3.6636,3.6662,0,0,0,0,0,0,3.6448,3.6455,3.647,3.6481,3.6488,3.653,3.6508,3.6508,3.6519,3.6516,3.6528,3.6529,3.6527,3.6557,3.6562,3.658,3.6547,3.6631,3.6633,3.6635,3.6659,3.6664,3.6668,0,0,0,0,0,3.6445,3.6475,3.6471,3.6477,3.6507,3.6531,3.6535,3.6533,3.652,3.6534,3.6538,3.6528,3.6574,3.656,3.6565,3.6584,3.663,3.6633,3.6635,3.6657,3.6663,3.6668,0,0,0,0,0,0,3.6465,3.6477,3.6472,3.6507,3.6518,3.6528,3.6546,3.654,3.6554,3.6552,3.6548,3.6551,3.658,3.6584,3.6568,3.6618,3.66,3.6604,3.6615,3.662,3.6625,3.6623,3.6549,0,0,0,0,0,3.6474,3.6494,3.6502,3.6532,3.6538,3.6541,3.6552,3.655,3.6561,3.6565,3.6571,3.6582,3.6598,3.6609,3.6625,3.6659,3.6661,3.6675,3.6679,3.6683,3.6687,3.6705,3.6711,3.6646,3.6646,3.6646,0,0,3.6491,3.65,3.6513,3.6537,3.6545,3.6565,3.6546,3.6567,3.6582,3.6568,3.6595,3.66,3.6611,3.6642,3.6656,3.6647,3.6705,3.6687,3.669,3.6691,3.6708,3.6714,3.672,3.6648,3.6647,3.6647,0,0,3.6534,3.6543,3.6569,3.6578,3.6591,3.6592,3.6598,3.661,3.6612,3.6639,3.663,3.6646,3.6675,3.6683,3.6691,3.6735,3.6727,3.674,3.6764,3.6782,3.6787,3.6791,3.6807,3.6813,3.6744,3.6744,3.6744,0,3.6554,3.6585,3.6582,3.6605,3.6615,3.6605,3.663,3.6638,3.6656,3.6662,3.6652,3.6688,3.6695,3.6727,3.6738,3.6745,3.6751,3.6739,3.6786,3.6791,3.6795,3.681,3.6816,3.6745,3.6745,3.6745,3.6745,0,3.6608,3.6629,3.6648,3.6666,3.6678,3.6702,3.6703,3.6715,3.6711,3.6713,3.674,3.6748,3.6765,3.6772,3.6769,3.6804,3.6798,3.6787,3.6768,3.6803,3.6817,3.6822,3.6748,3.6747,3.6747,3.6746,0,0,3.6666,3.6681,3.6688,3.6696,3.6709,3.6725,3.6747,3.6765,3.6775,3.6787,3.6805,3.683,3.6819,3.6828,3.6825,3.684,3.6875,3.6827,3.6828,3.6836,3.6914,3.6922,3.6929,3.6869,3.687,3.6871,3.6913,0,3.6709,3.675,3.6748,3.6786,3.6805,3.6794,3.6813,3.6823,3.6825,3.684,3.6842,3.686,3.6845,3.685,3.6865,3.6867,3.689,3.6864,3.6885,3.6886,3.6884,3.6936,3.6946,3.6985,3.6918,3.6919,3.692,0,3.6766,3.678,3.682,3.683,3.6837,3.6855,3.687,3.6885,3.6895,3.6896,3.6905,3.6899,3.6921,3.6901,3.6931,3.6913,3.6921,3.6924,3.6925,3.6927,3.6906,3.694,3.6998,3.7004,3.6928,3.6928,3.6927,0,3.6803,3.6833,3.686,3.6867,3.6879,3.6891,3.6897,3.6905,3.6916,3.6928,3.6935,3.6949,3.6957,3.6968,3.6966,3.6952,3.6996,3.6976,3.6996,3.6996,3.7007,3.7006,3.7067,3.7011,3.7011,3.7011,3.7011,0,3.6853,3.6877,3.6877,3.6894,3.6921,3.6918,3.6944,3.6948,3.6955,3.6972,3.6963,3.6978,3.6974,3.6989,3.6987,3.7012,3.7015,3.7016,3.7015,3.7017,3.7017,3.7023,3.702,3.7013,3.7012,3.7012,3.7012,0,3.69,3.6901,3.693,3.6939,3.6941,3.6961,3.6968,3.6983,3.6984,3.7005,3.7009,3.7011,3.7028,3.7027,3.7046,3.7044,3.7074,3.707,3.7072,3.7071,3.7091,3.7089,3.7158,3.7167,3.7105,3.7106,3.7106,0,3.6932,3.6951,3.6961,3.6972,3.6978,3.6996,3.7006,3.7003,3.7013,3.7026,3.7039,3.7056,3.7069,3.7096,3.7099,3.7113,3.7109,3.7132,3.7111,3.7112,3.711,3.7109,3.711,3.7136,3.7137,3.7138,3.7138,0,3.6988,3.6987,3.7003,3.7018,3.7031,3.7043,3.7054,3.7063,3.706,3.7073,3.709,3.71,3.712,3.7136,3.7149,3.7154,3.7145,3.7144,3.715,3.7152,3.7152,3.7153,3.7083,3.7143,3.7143,3.7142,3.7142,3.7142,3.7029,3.7045,3.7054,3.7072,3.7079,3.7089,3.7104,3.7107,3.7122,3.7138,3.7135,3.7154,3.7162,3.718,3.7185,3.72,3.7192,3.72,3.7202,3.7204,3.7206,3.715,3.7202,3.7202,3.7202,3.7202,3.7202,0,3.7085,3.709,3.7106,3.7121,3.7135,3.7126,3.7137,3.7148,3.7166,3.7175,3.7188,3.7207,3.7223,3.7226,3.724,3.7251,3.7248,3.7255,3.7255,3.7256,3.7213,3.7207,3.7258,3.7258,3.7258,3.7258,3.7258,3.7258,3.7115,3.7142,3.7142,3.7171,3.7176,3.7196,3.7203,3.7212,3.7219,3.7242,3.7254,3.7256,3.7262,3.7277,3.729,3.729,3.7296,3.7305,3.7304,3.7264,3.7259,3.7253,3.7248,3.7306,3.7307,3.7346,3.7346,3.7346]}]]